{"data":{"norad_id":47589,"intl_designator":"2021-009AT","name":"STARLINK-1994","alt_names":[],"object_type":"PAYLOAD","status":"ACTIVE","operator":null,"country":"US","launch_date":"2021-02-04","launch_site_code":"AFETR","launch_vehicle":null,"mission":null,"orbit_class":"UNKNOWN","rcs_meters":null,"size_class":null,"mass_kg":null,"dimensions":null,"purposes":["comms"],"wikipedia_slug":null,"has_3d_model":false,"image_url":null,"decayed_at":null,"tle_current":{"epoch":"2026-08-06T16:59:29.517792Z","epoch_age_seconds":3895915,"freshness":"OLD","line1":"1 47589U 21009AT  26218.70798053  .04806434  12162-4  91566-3 0  9998","line2":"2 47589  53.0230 333.0558 0012059 318.9460  41.0674 16.30951370304737","mean_motion":16.3095137,"eccentricity":0.0012059,"inclination_deg":53.023,"raan_deg":333.0558,"arg_perigee_deg":318.946,"mean_anomaly_deg":41.0674,"bstar":0.00091566,"rev_number":30473,"period_min":88.292025531086,"perigee_km":182.06383265043,"apogee_km":197.90482767451,"semimajor_km":6568.1213301625,"source":"CELESTRAK","updated_at":"2026-08-07T09:00:59.271627Z"}}}